sat.trackr.live / text

‹ back to catalog

STARLINK-31812

NORAD 59800 · 2024-093U

PAYLOAD ACTIVE UNKNOWN

§ Identity

Operator
Country
US
Launch date
2024-05-18
Launch site
AFETR
Launch vehicle
Mass (kg)
RCS (m²)

Purposes: comms

External: N2YO · Heavens-Above · Gunter

§ Orbital elements

Epoch: 2026-05-24T23:46:47.688672Z

Period
94.27 min
Inclination
43.0007°
Eccentricity
0.0001068
Mean motion
15.27576355 rev/d
Perigee alt
482.3 km
Apogee alt
483.8 km
Semi-major
6,861.2 km
B*
2.0499e-5
RAAN
138.0742°
Arg perigee
275.7427°
Mean anomaly
84.3303°
Rev number
11,443

§ Raw data

STARLINK-318121 59800U 24093U   26144.99082973  .00000302  00000+0  20499-4 0  99962 59800  43.0007 138.0742 0001068 275.7427  84.3303 15.27576355114432

JSON: /api/v1/satellites/59800 · /tle

For live sub-satellite position, see the globe view (requires WebGL).

§ Visibility from observer

Set your observer location to see the next 7 days of passes ≥ 10°. The values pass through the URL so the page stays shareable.

No JS? Fill the form by hand. The geolocation button needs JavaScript.